Flag for China Weather past 2 weeks in Zhengzhou, Henan, China

Now
68 °F

Overcast.


Feels Like: 68 °F
Forecast: 55 / 75 °F
Wind: 3 mph from North

Location: Zhengzhou Airport

Current Time: Oct 21, 2014 at 4:48:18 PM

Latest Report: Oct 21, 2014 at 4:00 PM


Visibility: 1 mi

Pressure: 30.18 "Hg

Humidity: 60%

Dew point: 54 °F

Location of ZhengzhouLocation

Historic Weather in Zhengzhou — Graph

°F

Zhengzhou temperature yesterday

Maximum temperature yesterday: 61 °F (at 12:00 AM)
Minimum temperature yesterday: 59 °F (at 5:00 AM)
Average temperature yesterday: 60 °F

Past Weeks' High & Low Weather Summary

 TemperatureHumidityPressure
High81 °F (Oct 15, 2:00 PM)100% (Oct 10, 6:00 AM)30.45 "Hg (Oct 10, 6:00 AM)
Low45 °F (Oct 14, 7:00 AM)17% (Oct 15, 3:00 PM)29.92 "Hg (Oct 19, 2:00 PM)
Average63 °F64%30.13 "Hg
* Reported Oct 6 3:00 PM — Oct 21 3:00 PM, Zhengzhou, Weather by CustomWeather, © 2014

Note: Actual official high and low records may vary slightly from our data, if they occured in-between our weather recording intervals... More about our weather records

Advertising

Zhengzhou weather history for previous 24 hours

 ConditionsComfort  
Time TempWeatherWind HumidityBarometerVisibility
3:00 PM
Oct 21
68 °FOvercast.6 mph64%30.18 "Hg1 mi
2:00 PM66 °FOvercast.3 mph68%30.21 "Hg1 mi
1:00 PM66 °FPartly sunny.6 mph68%30.21 "Hg1 mi
12:00 PM64 °FOvercast.8 mph73%30.24 "Hg1 mi
11:00 AM63 °FFog.8 mph77%30.24 "Hg1 mi
10:00 AM61 °FFog.6 mph83%30.24 "Hg1 mi
9:00 AM61 °FFog.8 mph77%30.24 "Hg1 mi
8:00 AM59 °FFog.8 mph88%30.21 "Hg1 mi
7:00 AM59 °FFog.8 mph82%30.18 "Hg1 mi
6:00 AM59 °FFog.8 mph82%30.15 "Hg1 mi
5:00 AM59 °FFog.8 mph82%30.12 "Hg1 mi
4:00 AM59 °FFog.6 mph88%30.12 "Hg1 mi
3:00 AM59 °FFog.10 mph88%30.12 "Hg1 mi
2:00 AM59 °FFog.8 mph88%30.12 "Hg1 mi
1:00 AM59 °FLight rain. Fog.8 mph88%30.12 "Hg1 mi
12:00 AM59 °FFog.8 mph88%30.09 "Hg1 mi
11:00 PM
Oct 20
59 °FFog.8 mph88%30.12 "Hg1 mi
10:00 PM59 °FFog.8 mph88%30.09 "Hg1 mi
9:00 PM59 °FFog.6 mph88%30.09 "Hg1 mi
8:00 PM59 °FLight rain. Fog.3 mph88%30.07 "Hg1 mi
7:00 PM59 °FLight rain. Fog.8 mph88%30.04 "Hg1 mi
6:00 PM59 °FLight rain. Fog.6 mph88%30.04 "Hg1 mi
5:00 PM59 °FLight rain. Fog.6 mph88%30.01 "Hg1 mi
4:00 PM59 °FRain. Fog.6 mph88%29.98 "Hg1 mi
Weather by CustomWeather, © 2014

See weather overviewHow to use our weather pages